CZ-4C DEB, 45484

Orbit data source: Space-Track

CZ-4C DEB, 45484 is space debris in LEO originally from a launch on Tue, 10 Apr 2018 UTC launched from the Jiuquan Satellite Launch Center, China (JSC). Debris objects in space refer to the collection of defunct objects orbiting the Earth. Examples of debris include non-operational satellites, rocket bodies, and fragments generated from explosions, collisions, or faulty payload assembly.

Loading next visibility...
Identifier
45484, 2018-034M
Orbit
LEO
Last TLE update
2 days ago
Origin
Manufacturer
Unknown
Mission
Spacecraft
Bus & Motor
Unknown
Mass
Unknown
Launch date (UTC)
2018-04-10 (7 years ago)
Launch vehicle
Unknown
Launch site
Jiuquan Satellite Launch Center, China (JSC)
Object type
Payload
Rocket body
Debris
Shape & HBR
Unknown
Radar Cross Section
Small (<0.1 m²)

Expand to show TLE details & history

TLE from 2 days ago
0 CZ-4C DEB
1 45484U 18034M   25183.03303718 -.00000078  00000-0  17137-4 0  9994
2 45484  63.3919 299.0273 0234698   7.4184 353.0215 13.42918089320386
Epoch: 2025-07-02T00:47Z
TLE epoch observation values (Epoch: 2025-07-02T00:47:34.412Z)
Latitude
-0.00003°
Longitude
6.81395°
Altitude
926.065 km
Speed
7.475 km/s
True Right ascension
19h 56m 06s
True Declination
0° 00' 00"
Sunlit
Object was in full shadow at epoch
Visualization orbit readout
Latitude
-10.81947°
Longitude
-171.63439°
Altitude
1,277.146 km
Speed
7.132 km/s
Apparent Right ascension
10h 00m 06s
Apparent Declination
-29° 23' 47"
Sunlit
Object is in daylight
Visualization observer readout
Local Sidereal Time
01:16:05
Azimuth
90.845° ESE
Elevation
-48.884°
Doppler factor
1
Orbital elements
Apogee altitude
1,272.706 km
Perigee altitude
921.814 km
Semi-major axis
7,475.397 km
Eccentricity
0.02347
Inclination
63.3919°
RAAN
299.0273°
Arg. of periapsis
7.4184°
True anomaly
Unknown
Mean anomaly
353.0215°
Eccentric anomaly
Unknown
Mean motion
3.35809 °/min
Orbital period
107.2 mins
BSTAR
0.000017137
Loading maneuver chart data...
Loading SW <> Apogee altitude chart data...
Loading historical data...
Loading historical data...
Loading historical data...
Loading historical data...
Loading historical data...
Loading historical data...
Loading historical data...

CZ-4C DEB Visibility forecast

Observer location: undefined°, undefined°

Span
Click to sort rows by Start time (UTC) header in descending order
Start Az.
Max El. time (UTC)
Max El. Az.
Max El.
End time (UTC)
End Az.
11 mins2025-07-03 16:37:15.814Z347.024° N2025-07-03 16:42:15.814Z40.305° NE27.255°2025-07-03 16:48:15.814Z98.888° ESE
13 mins2025-07-03 18:28:15.814Z318.665° NNW2025-07-03 18:33:15.814Z261.735° W42.702°2025-07-03 18:41:15.814Z159.622° S
9 mins2025-07-04 08:19:15.814Z168.559° S2025-07-04 08:23:15.814Z112.3° ESE29.803°2025-07-04 08:28:15.814Z52.818° ENE
10 mins2025-07-04 10:09:15.814Z248.547° W2025-07-04 10:14:15.814Z324.886° NNW33.437°2025-07-04 10:19:15.814Z21.008° NNE
|